Regional Weather Roundup
Issued by NWS

Home | Current Version | Previous Version | Text Only | Print | Product List | Glossary Off
Versions: 1 2 3 4 5 6 7 8 9 10 11 12 13 14 15 16 17 18 19 20 21 22 23 24 25 26 27 28 29 30 31 32 33 34 35 36 37 38 39 40 41 42 43 44 45 46 47 48 49 50

000
ASUS43 KTOP 250008
RWRKS

WEATHER ROUNDUP FOR KANSAS
NATIONAL WEATHER SERVICE GOODLAND KS
700 PM CDT THU APR 24 2014

NOTE:  "FAIR" INDICATES FEW OR NO CLOUDS BELOW 12,000 FEET WITH NO
SIGNIFICANT WEATHER AND/OR OBSTRUCTIONS TO VISIBILITY.

KSZ001>006-013>018-027>032-041>047-250100-
NORTHWEST KANSAS

CITY           SKY/WX    TMP DP  RH WIND       PRES   REMARKS
GOODLAND       MOSUNNY   66  13  12 NW8G20    29.88F
6HR MIN TEMP:  62; 6HR MAX TEMP:  68;

HAYS           SUNNY     70  25  18 NW9       29.85S
HILL CITY      SUNNY     69  20  15 NW9       29.85R
6HR MIN TEMP:  65; 6HR MAX TEMP:  71;

RUSSELL        SUNNY     69  26  20 NW12      29.83S
6HR MIN TEMP:  62; 6HR MAX TEMP:  71;

$$

KSZ061>065-074>080-084>089-250100-
SOUTHWEST KANSAS

CITY           SKY/WX    TMP DP  RH WIND       PRES   REMARKS
DODGE CITY     SUNNY     68  22  17 NW9       29.90R
6HR MIN TEMP:  63; 6HR MAX TEMP:  70;

ELKHART          N/A     68  22  17 S5          N/A
GARDEN CITY    SUNNY     69  11  10 N9        29.89S
6HR MIN TEMP:  65; 6HR MAX TEMP:  71;

GREAT BEND     SUNNY     70  27  19 NW10      29.85R
LIBERAL        MOSUNNY   70  19  14 NW9       29.93S
PRATT          SUNNY     68  30  24 N9        29.89S
$$

KSZ066>073-081>083-090>101-250100-
SOUTHEAST KANSAS

CITY           SKY/WX    TMP DP  RH WIND       PRES   REMARKS
CHANUTE        CLOUDY    60  44  55 NW15      29.82R
6HR MIN TEMP:  59; 6HR MAX TEMP:  63; 6HR PCP:  0.05;

COFFEYVILLE    PTSUNNY   63  48  58 NW16      29.82R
6HR MIN TEMP:  60; 6HR MAX TEMP:  65; 6HR PCP: TRACE;

HUTCHINSON     SUNNY     70  31  23 N12       29.84S
6HR MIN TEMP:  60; 6HR MAX TEMP:  72;

MEDICINE LODGE   N/A     70  30  22 N10       29.87R
NEWTON         SUNNY     64  36  34 N10       29.88S
PARSONS        CLOUDY    62  49  62 N18G25    29.83R
6HR MIN TEMP:  59; 6HR MAX TEMP:  64; 6HR PCP:  0.04;

WICHITA INTL   MOSUNNY   69  35  28 N8        29.85R
6HR MIN TEMP:  61; 6HR MAX TEMP:  70;

WICHITA JABRA  SUNNY     66  37  34 N12       29.85S
6HR MIN TEMP:  59; 6HR MAX TEMP:  68;

WICHITA MCCONL SUNNY     67  35  31 N13G20    29.86R
WINFIELD       SUNNY     66  38  35 N13       29.88S
6HR MIN TEMP:  62; 6HR MAX TEMP:  69;

$$

KSZ007>012-019>026-033>040-048>060-102>105-250100-
NORTHEAST KANSAS

CITY           SKY/WX    TMP DP  RH WIND       PRES   REMARKS
CONCORDIA      SUNNY     68  31  25 N12       29.81S
6HR MIN TEMP:  57; 6HR MAX TEMP:  70;

EMPORIA        PTSUNNY   63  40  42 N13G22    29.83R
6HR MIN TEMP:  57; 6HR MAX TEMP:  64; 6HR PCP: TRACE;

LAWRENCE       CLOUDY    59  47  64 NW13      29.81R
6HR MIN TEMP:  57; 6HR MAX TEMP:  61; 6HR PCP:  0.01;

MANHATTAN      MOSUNNY   66  44  45 NE8       29.81S
6HR MIN TEMP:  58; 6HR MAX TEMP:  68; 6HR PCP: TRACE;

OLATHE IND     CLOUDY    57  47  69 NW16      29.79R
6HR MIN TEMP:  56; 6HR MAX TEMP:  59; 6HR PCP:  0.18;

OLATHE EXE     CLOUDY    57  46  66 N15G22    29.77R
6HR MIN TEMP:  55; 6HR MAX TEMP:  59; 6HR PCP:  0.20;

SALINA         SUNNY     67  39  35 N9        29.83R
6HR MIN TEMP:  60; 6HR MAX TEMP:  71;

TOPEKA BILLARD CLOUDY    63  45  51 NW8       29.81R
6HR MIN TEMP:  56; 6HR MAX TEMP:  64; 6HR PCP: TRACE;

TOPEKA FORBES  CLOUDY    62  43  49 N15       29.81R
6HR MIN TEMP:  55; 6HR MAX TEMP:  63;

$$



USA.gov is the U.S. government's official web portal to all federal, state and local government web resources and services.